Flag for Germany Weather past 2 weeks in Pirmasens, Rhineland-Palatinate, Germany

Now
59 °F

Passing clouds.


Feels Like: 59 °F
Forecast: 57 / 87 °F
Wind: 5 mph from Northeast

Location: Saarbruecken / Ensheim

Current Time: Jun 30, 2015 at 5:47:06 AM

Latest Report: Jun 30, 2015 at 4:50 AM


Visibility: N/A

Pressure: 30.15 "Hg

Humidity: 77%

Dew point: 52 °F

Location of PirmasensLocation

Historic Weather in Pirmasens — Graph

°F

Pirmasens temperature yesterday

Maximum temperature yesterday: 82 °F (at 3:20 PM)
Minimum temperature yesterday: 59 °F (at 3:50 AM)
Average temperature yesterday: 71 °F

Past Weeks' High & Low Weather Summary

 TemperatureHumidityPressure
High82 °F (Jun 29, 3:20 PM)100% (Jun 18, 9:50 AM)30.27 "Hg (Jun 18, 9:50 AM)
Low45 °F (Jun 19, 5:20 AM)33% (Jun 17, 5:20 PM)29.74 "Hg (Jun 22, 9:50 PM)
Average61 °F67%30.10 "Hg
* Reported Jun 15 4:20 AM — Jun 30 4:20 AM, Pirmasens, Weather by CustomWeather, © 2015

Note: Actual official high and low records may vary slightly from our data, if they occured in-between our weather recording intervals... More about our weather records

Advertising

Pirmasens weather history for previous 24 hours

 ConditionsComfort  
Time TempWeatherWind HumidityBarometerVisibility
4:20 AM
Tue, Jun 30
59 °FPassing clouds.3 mph77%30.15 "HgN/A
3:50 AM61 °FPassing clouds.5 mph72%30.18 "HgN/A
3:20 AM59 °FClear.6 mph72%30.18 "Hg10 mi
2:50 AM61 °FClear.7 mph68%30.18 "Hg10 mi
2:20 AM63 °FClear.5 mph68%30.18 "Hg10 mi
1:50 AM64 °FPassing clouds.6 mph64%30.18 "HgN/A
1:20 AM66 °FClear.8 mph60%30.18 "Hg10 mi
12:50 AM66 °FPassing clouds.8 mph60%30.18 "HgN/A
12:20 AM68 °FClear.8 mph56%30.18 "Hg10 mi
11:20 PM
Mon, Jun 29
68 °FClear.9 mph56%30.18 "Hg10 mi
10:20 PM68 °FSunny.3 mph53%30.18 "Hg10 mi
9:50 PM70 °FSunny.3 mph50%30.18 "Hg10 mi
9:20 PM72 °FSunny.2 mph47%30.15 "Hg10 mi
8:50 PM73 °FSunny.5 mph44%30.15 "Hg10 mi
8:20 PM77 °FSunny.7 mph39%30.15 "Hg10 mi
7:50 PM79 °FSunny.7 mph37%30.15 "Hg10 mi
7:20 PM79 °FPassing clouds.8 mph39%30.15 "HgN/A
6:50 PM81 °FSunny.9 mph34%30.15 "Hg10 mi
6:20 PM81 °FSunny.9 mph37%30.15 "Hg10 mi
5:50 PM81 °FPassing clouds.10 mph37%30.15 "HgN/A
5:20 PM81 °FPassing clouds.9 mph39%30.15 "HgN/A
4:50 PM82 °FPassing clouds.9 mph40%30.15 "HgN/A
4:20 PM81 °FPassing clouds.9 mph39%30.15 "HgN/A
3:50 PM81 °FPassing clouds.12 mph37%30.15 "HgN/A
3:20 PM82 °FPassing clouds.13 mph37%30.15 "HgN/A
2:50 PM81 °FPassing clouds.10 mph39%30.15 "HgN/A
2:20 PM81 °FPassing clouds.7 mph37%30.15 "HgN/A
1:50 PM81 °FPassing clouds.8 mph34%30.15 "HgN/A
1:20 PM79 °FPassing clouds.6 mph42%30.15 "HgN/A
12:50 PM79 °FSunny.5 mph48%30.15 "Hg10 mi
12:20 PM77 °FSunny.6 mph44%30.15 "Hg10 mi
11:50 AM75 °FPassing clouds.6 mph50%30.15 "HgN/A
11:20 AM75 °FBroken clouds.3 mph47%30.15 "HgN/A
10:50 AM73 °FBroken clouds.3 mph53%30.15 "HgN/A
10:20 AM72 °FPassing clouds.3 mph53%30.18 "HgN/A
9:50 AM70 °FPassing clouds.3 mph57%30.15 "HgN/A
9:20 AM68 °FPassing clouds.3 mph56%30.15 "HgN/A
8:50 AM66 °FPassing clouds.3 mph56%30.15 "HgN/A
8:20 AM64 °FSunny.No wind64%30.15 "Hg10 mi
7:50 AM63 °FSunny.3 mph73%30.15 "Hg10 mi
7:20 AM63 °FSunny.2 mph68%30.15 "Hg10 mi
6:50 AM61 °FSunny.2 mph72%30.15 "Hg10 mi
6:20 AM59 °FClear.2 mph72%30.15 "Hg10 mi
5:50 AM59 °FClear.2 mph68%30.12 "Hg10 mi
5:20 AM59 °FClear.2 mph68%30.12 "Hg10 mi
Weather by CustomWeather, © 2015

See weather overviewHow to use our weather pages